Weather History for Fort Stockton, TX

Change the Weather History Date:

Sunday, June 17, 2012

  Actual Average Record
Temperature  
Mean Temperature 81 °F -  
Max Temperature 93 °F 92 °F 107 °F (1998)
Min Temperature 71 °F 67 °F 57 °F (1997)
Cooling Degree Days 16    
Growing Degree Days 31 (Base 50)    
Moisture  
Dew Point 58 °F    
Average Humidity 47    
Maximum Humidity 73    
Minimum Humidity 30    
Precipitation  
Precipitation 0.02 in - - ()
Sea Level Pressure  
Sea Level Pressure 29.85 in    
Wind  
Wind Speed 8 mph (SE)    
Max Wind Speed 14 mph    
Max Gust Speed 21 mph    
Visibility 10 miles    
Events Rain , Thunderstorm    
Averages and records for this station are not official NWS values.
T = Trace of Precipitation, MM = Missing Value Source: NWS Daily Summary

Daily Weather History Graph

Daily Weather History Graph

Search for Another Location

Airport:

Trip Planner

Search our weather history database for the weather conditions in past years. The results will help you decide how hot, cold, wet, or windy it might be!

Date:

Astronomy

Jun. 17, 2012 Rise Set
Actual Time 6:48 AM CDT 8:57 PM CDT
Civil Twilight 6:20 AM CDT 9:25 PM CDT
Nautical Twilight 5:46 AM CDT 9:59 PM CDT
Astronomical Twilight 5:10 AM CDT 10:35 PM CDT
Moon 5:15 AM CDT (6/17) 7:30 PM CDT (6/17)
Length of Visible Light 15h 04m
Length of Day
14h 09m
Waning Crescent, 3% of the Moon is Illuminated
Jun 17
Waning Crescent
Jun 19
New
Jun 26
First Quarter
Jul 3
Full
Jul 10
Last Quarter

Hourly Weather History & Observations

Time (CDT) Temp. Heat Index Dew Point Humidity Pressure Visibility Wind Dir Wind Speed Gust Speed Precip Events Conditions
12:53 AM 79.0 °F - 57.9 °F 48% 29.90 in 10.0 mi ESE 9.2 mph - N/A   Clear
1:53 AM 77.0 °F - 57.9 °F 52% 29.91 in 10.0 mi ESE 4.6 mph - N/A   Clear
2:53 AM 73.9 °F - 59.0 °F 59% 29.92 in 10.0 mi East 8.1 mph - N/A   Clear
3:53 AM 73.0 °F - 59.0 °F 61% 29.92 in 10.0 mi ESE 10.4 mph - N/A   Clear
4:53 AM 73.0 °F - 59.0 °F 61% 29.91 in 10.0 mi SSE 11.5 mph - N/A   Clear
5:53 AM 72.0 °F - 60.1 °F 66% 29.90 in 10.0 mi South 13.8 mph - N/A   Clear
6:53 AM 71.1 °F - 62.1 °F 73% 29.93 in 10.0 mi SE 5.8 mph - N/A   Clear
7:53 AM 71.1 °F - 62.1 °F 73% 29.95 in 10.0 mi West 3.5 mph - N/A   Clear
9:53 AM 77.0 °F - 59.0 °F 54% 29.95 in 10.0 mi SSW 8.1 mph - N/A   Clear
10:53 AM 81.0 °F 81.3 °F 59.0 °F 47% 29.93 in 10.0 mi WSW 4.6 mph - N/A   Clear
11:53 AM 84.9 °F 84.2 °F 57.9 °F 40% 29.91 in 10.0 mi Calm Calm - N/A   Clear
12:53 PM 88.0 °F 86.7 °F 57.0 °F 35% 29.90 in 10.0 mi Variable 3.5 mph - N/A   Clear
1:53 PM 90.0 °F 88.8 °F 57.9 °F 34% 29.87 in 10.0 mi Variable 4.6 mph - N/A   Clear
2:53 PM 91.0 °F 90.0 °F 57.9 °F 33% 29.83 in 10.0 mi East 5.8 mph - N/A   Partly Cloudy
3:53 PM 91.9 °F 90.6 °F 57.0 °F 31% 29.79 in 10.0 mi SE 11.5 mph 20.7 mph N/A   Clear
4:53 PM 91.0 °F 89.2 °F 55.9 °F 30% 29.77 in 10.0 mi SSE 6.9 mph - 0.00 in Thunderstorm Partly Cloudy
5:34 PM 78.8 °F - 60.8 °F 54% 29.93 in 8.0 mi SSE 12.7 mph - 0.02 in Rain , Thunderstorm Thunderstorms and Rain
5:53 PM 82.9 °F 83.7 °F 62.1 °F 49% 29.76 in 10.0 mi SE 10.4 mph - 0.02 in Thunderstorm Overcast
6:02 PM 84.2 °F 83.8 °F 59.0 °F 42% 29.90 in 10.0 mi SE 11.5 mph - N/A   Mostly Cloudy
6:53 PM 88.0 °F 87.9 °F 61.0 °F 40% 29.74 in 10.0 mi SE 4.6 mph - N/A   Clear
7:53 PM 89.1 °F 87.7 °F 57.0 °F 34% 29.73 in 10.0 mi ESE 4.6 mph - N/A   Clear
8:53 PM 84.9 °F 83.7 °F 55.9 °F 37% 29.73 in 10.0 mi SSE 12.7 mph - N/A   Clear
9:53 PM 82.0 °F 81.4 °F 55.0 °F 39% 29.73 in 10.0 mi South 11.5 mph - N/A   Clear
10:53 PM 80.1 °F 80.1 °F 55.0 °F 42% 29.74 in 10.0 mi South 9.2 mph - N/A   Clear
11:53 PM 80.1 °F 80.2 °F 55.9 °F 43% 29.74 in 10.0 mi SSE 11.5 mph - N/A   Clear